Home > Weather > Newmarket > Past weeks

Flag for Canada Past Weather in Newmarket, Ontario, Canada — Yesterday and Last 2 Weeks

Now
63 °F

Passing clouds.


Feels Like: 63 °F
Forecast: 59 / 75 °F
Wind: 2 mph from Northwest

Location: Borden

Current Time: May 25, 2016 at 10:57:39 PM

Latest Report: May 25, 2016 at 10:00 PM


Visibility: 9 mi

Pressure: 30.05 "Hg

Humidity: 77%

Dew Point: 55 °F

Location of NewmarketLocation

Past Weather in Newmarket — Graph

°F

Newmarket Temperature Yesterday

Maximum temperature yesterday: 82 °F (at 3:00 PM)
Minimum temperature yesterday: 37 °F (at 4:00 AM)
Average temperature yesterday: 62 °F

High & Low Weather Summary for the Past Weeks

 TemperatureHumidityPressure
High82 °F (May 24, 3:00 PM)100% (May 11, 6:00 AM)30.30 "Hg (May 11, 6:00 AM)
Low27 °F (May 11, 6:00 AM)23% (May 11, 4:00 PM)29.45 "Hg (May 14, 10:46 AM)
Average53 °F63%30.01 "Hg
* Reported May 10 9:00 PM — May 25 9:00 PM, Newmarket, Weather by CustomWeather, © 2016

Note: Actual official high and low records may vary slightly from our data, if they occured in-between our weather recording intervals... More about our weather records

Advertising

Newmarket Weather History for the Previous 24 Hours

Scroll right to see more
 ConditionsComfort  
Time TempWeatherWind HumidityBarometerVisibility
9:00 PM
Wed, May 25
66 °FScattered clouds.3 mph68%30.05 "Hg9 mi
8:00 PM70 °FSunny.5 mph60%30.05 "Hg9 mi
7:00 PM73 °FSunny.7 mph53%30.05 "Hg9 mi
6:00 PM75 °FSunny.9 mph50%30.05 "Hg9 mi
5:00 PM75 °FSunny.10 mph50%30.05 "Hg9 mi
4:00 PM77 °FSunny.14 mph47%30.03 "Hg9 mi
3:00 PM77 °FSunny.9 mph44%30.05 "Hg9 mi
2:00 PM77 °FPassing clouds.13 mph47%30.06 "Hg9 mi
1:00 PM77 °FPassing clouds.10 mph47%30.06 "Hg9 mi
12:00 PM77 °FPassing clouds.8 mph47%30.04 "Hg9 mi
11:00 AM77 °FPassing clouds.8 mph47%30.02 "Hg9 mi
10:00 AM75 °FPartly sunny.8 mph47%30.01 "Hg9 mi
9:00 AM72 °FScattered clouds.7 mph47%30.03 "Hg9 mi
8:00 AM66 °FSunny.5 mph60%30.02 "Hg9 mi
7:00 AM61 °FPassing clouds.3 mph68%30.01 "Hg9 mi
6:00 AM63 °FPassing clouds.3 mph59%29.99 "Hg9 mi
5:00 AM64 °FClear.3 mph60%29.96 "Hg9 mi
4:00 AM66 °FClear.2 mph56%29.95 "Hg9 mi
3:00 AM61 °FClear.No wind68%29.94 "Hg9 mi
2:00 AM57 °FClear.5 mph72%29.95 "Hg9 mi
1:00 AM52 °FClear.2 mph82%29.96 "Hg9 mi
12:00 AM54 °FClear.2 mph82%29.97 "Hg9 mi
11:00 PM
Tue, May 24
57 °FClear.7 mph72%29.97 "Hg9 mi
10:00 PM57 °FClear.No wind72%29.97 "Hg9 mi
Weather by CustomWeather, © 2016

See weather overviewHow to use our weather pages